{"data":{"norad_id":87561,"intl_designator":"","name":"UNKNOWN","alt_names":[],"object_type":"UNKNOWN","status":"UNKNOWN","operator":null,"country":null,"launch_date":null,"launch_site_code":null,"launch_vehicle":null,"mission":null,"orbit_class":"UNKNOWN","rcs_meters":null,"size_class":null,"mass_kg":null,"dimensions":null,"purposes":[],"wikipedia_slug":null,"has_3d_model":false,"image_url":null,"decayed_at":null,"tle_current":{"epoch":"2026-09-16T09:24:25.158240Z","epoch_age_seconds":369475,"freshness":"STALE","line1":"1 87561U          26259.39195785 -.00000099  00000+0 -43947-3 0  9997","line2":"2 87561 101.9760 313.8230 0175200 144.1603 284.1819 12.32146001576637","mean_motion":12.32146001,"eccentricity":0.01752,"inclination_deg":101.976,"raan_deg":313.823,"arg_perigee_deg":144.1603,"mean_anomaly_deg":284.1819,"bstar":-0.00043947,"rev_number":57663,"period_min":116.86926702122,"perigee_km":1401.346758552,"apogee_km":1678.8008654037,"semimajor_km":7918.2108119779,"source":"CELESTRAK","updated_at":"2026-09-20T09:00:32.476255Z"}}}